Probability
22 19 15 13 12 11 11 10 8 4 2 4 7 8 7 6 7 8 6 3 1 0 0 0 0 0 0 0 0 0 0 0 1 2 2 1 1 1
22 21 18 16 14 12 12 13 12 9 5 5 7 9 10 9 10 11 9 6 3 1 0 0 0 0 0 0 0 0 0 0 0 1 1 0 0 1
22 22 20 18 16 14 14 15 16 14 10 8 8 10 12 13 14 14 12 10 8 3 0 0 0 0 0 0 0 0 0 0 0 0 0 0 0 0
20 20 18 16 15 16 16 16 15 15 13 10 10 11 13 14 15 14 12 11 9 4 1 0 0 0 0 0 0 0 0 0 0 0 0 0 0 0
16 16 16 15 15 16 17 17 15 14 14 12 12 13 13 13 13 11 10 10 7 4 1 0 0 0 0 0 0 0 0 0 0 0 0 0 0 0
14 15 16 17 16 16 17 18 19 18 15 13 14 15 14 14 12 10 9 8 6 4 2 1 1 1 1 0 0 0 0 0 0 0 0 0 0 0
14 15 16 17 15 12 12 15 19 21 19 17 18 17 17 16 14 11 9 7 7 6 4 3 3 3 2 1 0 0 0 0 0 0 0 0 0 0
15 14 14 14 13 10 7 8 13 17 19 20 20 19 19 18 16 14 12 10 10 9 7 5 4 4 4 2 0 0 0 0 0 0 0 0 0 0
15 13 12 11 13 13 8 6 8 10 13 18 20 20 19 17 17 17 17 15 13 11 8 6 5 5 3 1 0 0 0 0 0 0 0 0 0 0
12 11 10 10 13 13 11 11 12 11 9 12 16 17 15 14 15 17 17 16 14 12 9 6 6 5 3 1 0 0 0 0 0 0 0 0 0 0
8 8 8 9 9 8 9 13 16 13 8 7 9 9 8 8 10 12 14 14 13 11 8 5 4 4 3 2 0 0 0 0 0 0 0 0 0 0
11 10 8 6 4 3 8 13 14 12 9 6 5 4 4 5 6 9 10 11 12 9 7 4 2 2 1 1 0 0 1 1 0 0 0 0 0 0
14 13 9 4 1 1 5 8 9 9 9 7 5 4 4 6 7 8 9 10 10 9 8 6 5 3 1 0 0 1 2 3 3 3 2 1 0 0
16 13 8 3 0 0 1 2 3 5 7 6 5 5 5 6 7 8 9 10 9 9 9 8 7 5 2 0 0 1 4 6 6 6 5 2 1 0
12 9 4 1 0 0 0 0 0 2 4 5 5 4 4 4 5 7 8 9 10 10 8 7 6 5 3 1 1 2 5 6 5 6 5 4 3 2
6 4 3 3 2 1 1 1 1 2 3 5 6 5 4 4 4 5 7 8 9 8 7 6 5 5 3 2 2 3 4 3 3 4 4 4 4 4
3 3 5 6 5 4 3 4 3 4 6 6 6 6 6 6 5 5 6 8 8 8 6 4 3 4 3 3 3 3 3 2 2 3 3 2 2 3
3 4 7 8 7 6 4 5 5 6 7 6 6 6 6 6 6 6 6 6 8 8 6 3 2 3 3 2 2 2 2 3 3 3 3 1 0 1
3 5 8 10 9 7 6 6 7 8 7 6 5 5 6 7 8 8 6 6 7 7 6 3 2 2 1 1 1 1 1 3 4 3 2 1 0 0
3 5 8 11 11 8 7 7 8 7 7 6 5 5 6 7 8 8 7 5 5 6 5 4 4 2 1 1 1 2 1 1 2 1 1 1 0 1
3 4 7 9 10 9 7 7 7 6 6 5 4 4 5 6 7 7 7 6 6 7 5 5 5 3 1 2 3 3 2 1 1 0 0 0 0 1
2 3 4 6 8 7 6 5 5 4 4 4 3 3 3 4 6 7 8 9 8 8 6 5 5 3 3 3 3 3 2 1 0 0 0 0 0 1
1 1 2 4 6 5 4 3 2 2 2 3 3 3 2 2 4 7 10 11 10 9 6 5 4 4 3 3 3 3 2 1 0 0 0 0 0 0
Wind_Speed
3 3 3 3 3 3 4 5 5 6 5 3 3 3 3 4 2 4 4 4 6 6 7 7 7 7 7 7 7 7 7 7 7 8 9 9 9 9
3 4 4 4 3 4 4 4 5 6 6 4 4 4 3 4 3 4 4 4 7 7 7 7 7 6 6 7 7 7 7 7 7 7 8 9 8 9
4 4 5 5 4 4 4 4 5 5 6 6 4 3 4 5 3 4 4 5 4 7 7 7 7 7 6 6 7 7 7 7 7 7 7 7 8 8
5 5 5 4 5 5 4 5 5 5 6 6 5 4 4 4 4 5 5 4 4 5 7 7 7 7 7 7 6 6 6 7 7 7 7 7 8 8
5 5 5 5 6 4 5 5 5 5 5 6 6 4 4 4 4 5 5 4 6 4 7 8 8 8 8 8 7 7 6 6 6 6 7 7 7 7
5 6 6 6 6 6 6 6 6 6 5 6 5 5 4 3 4 4 4 3 4 4 3 4 6 8 9 9 9 8 7 7 7 7 7 7 7 7
5 6 6 5 5 5 6 5 6 6 5 5 5 5 4 3 4 4 5 4 4 4 4 4 5 5 7 9 9 8 7 7 8 8 8 8 8 8
5 6 6 6 5 7 7 7 7 7 7 6 5 5 6 5 4 5 5 5 5 3 4 4 4 4 4 4 5 8 8 8 8 8 8 8 8 8
5 5 6 4 5 6 7 8 8 8 8 8 7 7 6 5 6 7 6 6 5 3 4 5 4 4 4 3 5 6 7 8 8 8 9 9 9 9
5 5 6 5 4 5 7 7 7 6 7 7 6 7 6 5 6 7 7 7 7 5 5 6 5 5 4 3 6 7 8 8 8 8 9 9 9 9
5 5 5 5 3 5 7 7 6 6 5 5 6 6 6 7 7 6 6 6 6 4 4 5 5 5 5 5 5 9 9 9 8 8 8 8 8 8
4 4 3 4 4 4 6 6 6 6 5 5 5 7 7 7 8 8 7 6 5 4 3 4 5 4 5 4 3 4 6 9 9 9 8 7 6 6
5 4 2 1 3 5 7 6 5 6 6 6 5 4 4 4 5 5 5 5 6 5 3 4 5 4 5 4 4 3 3 3 5 6 8 9 8 6
5 4 2 1 4 6 5 4 5 7 5 4 4 3 3 3 3 3 4 5 5 6 5 5 5 5 5 5 4 4 4 4 4 4 3 7 8 8
4 3 3 2 4 4 4 4 5 4 4 4 3 3 3 3 3 3 4 4 5 6 5 6 6 5 6 6 5 5 4 4 3 3 3 3 3 4
3 1 3 3 4 3 2 3 3 3 3 4 3 3 3 3 4 3 4 4 4 4 4 5 5 6 6 6 6 5 4 4 3 2 2 3 3 3
3 3 3 2 2 2 2 2 2 2 3 3 3 3 3 4 4 3 3 4 4 5 3 3 4 4 5 6 5 5 4 3 3 2 2 3 2 2
3 3 3 3 2 2 2 2 3 3 3 3 3 3 3 3 3 3 3 4 4 4 4 3 2 3 3 3 3 5 4 3 2 2 3 3 3 1
4 3 3 3 3 3 3 3 3 3 3 3 3 3 3 3 4 3 3 4 4 4 3 3 3 3 4 4 2 3 3 3 3 2 2 3 3 2
4 3 3 3 3 3 3 3 4 3 3 3 3 3 3 4 4 4 3 4 4 4 3 3 3 3 4 4 3 1 2 3 2 2 2 2 1 1
3 3 3 3 3 3 3 3 3 3 3 3 3 3 3 3 3 4 3 3 4 4 3 3 2 4 4 3 3 1 0 2 1 2 3 2 2 2
3 3 3 3 3 3 3 3 3 3 3 3 3 3 3 3 4 4 4 3 3 3 3 2 1 2 2 3 3 2 1 1 3 3 1 2 3 3
3 3 2 2 2 2 2 2 3 3 3 3 3 3 3 3 4 4 4 3 3 2 2 2 2 2 2 2 2 2 2 2 1 2 1 4 5 4
Wind_Direction
249 238 250 257 256 262 260 264 269 279 278 261 259 257 261 261 236 245 249 199 205 217 221 226 230 233 237 239 240 239 237 236 236 234 233 235 236 241
265 266 264 265 265 256 257 263 262 266 276 278 275 282 286 273 222 254 255 204 204 210 215 217 223 226 229 231 233 234 234 235 237 237 237 235 236 238
261 258 260 271 275 267 259 261 261 263 268 278 276 275 270 273 267 269 261 255 223 198 208 215 219 223 223 226 227 228 230 233 233 234 238 237 238 239
261 264 267 263 261 266 267 263 263 259 263 276 282 275 267 265 265 265 266 264 265 193 200 212 216 218 220 223 222 221 225 231 234 234 236 239 238 239
264 264 267 268 266 268 265 265 267 263 263 268 273 275 269 265 268 265 268 271 268 218 202 209 212 216 217 218 216 216 220 225 230 233 236 238 240 237
262 266 268 264 263 264 258 256 262 266 260 261 267 265 261 254 259 266 265 252 262 264 256 239 216 213 216 212 211 214 218 222 227 231 236 238 239 239
265 268 266 268 275 276 279 279 273 268 265 264 265 270 270 267 265 267 269 265 252 254 253 245 232 230 214 210 209 214 218 223 227 231 234 237 237 238
268 271 268 251 252 253 264 273 275 269 274 271 267 268 271 271 270 266 266 266 265 242 256 258 254 256 245 236 190 195 213 224 230 232 233 235 236 236
271 273 274 272 258 262 254 248 251 252 257 265 272 275 275 273 271 265 262 266 272 272 267 266 257 260 256 233 170 190 209 222 231 234 233 234 236 237
265 267 272 281 279 285 276 268 263 257 252 254 267 272 276 280 269 267 266 256 256 249 246 263 257 253 250 234 181 198 212 220 229 235 235 233 234 234
266 268 273 275 299 298 276 272 270 265 247 249 261 261 265 262 264 262 257 256 259 254 238 259 266 269 258 242 205 199 212 218 226 232 233 233 236 235
265 253 249 282 296 279 271 271 272 279 285 271 252 241 242 234 232 246 256 259 262 262 234 254 262 264 263 248 245 214 214 212 217 223 223 221 226 239
275 272 276 244 269 266 270 273 282 289 276 269 265 260 256 251 244 242 255 264 266 264 257 254 266 267 270 270 262 259 256 240 217 213 208 207 208 227
281 290 311 272 259 257 264 279 274 273 270 273 274 275 272 269 267 270 271 273 276 275 272 270 268 269 271 271 270 263 255 250 247 244 221 185 200 211
290 321 318 271 255 237 219 243 255 265 276 274 280 284 289 290 280 258 250 255 256 256 250 251 257 261 264 268 272 270 264 259 254 252 245 228 217 207
270 267 242 241 254 275 248 232 258 286 283 281 285 285 288 281 270 270 265 258 258 253 240 240 248 258 261 265 268 268 268 262 260 249 250 250 236 227
296 271 273 268 264 272 278 284 283 273 268 277 281 282 279 276 275 277 278 272 267 269 260 238 231 236 254 268 267 266 267 266 263 269 260 262 255 241
270 269 277 279 282 286 284 281 273 276 277 276 272 273 276 278 280 279 274 269 269 272 275 270 252 248 247 231 256 269 268 269 269 250 254 262 271 286
247 260 271 280 282 278 277 279 278 276 275 273 275 276 278 276 275 276 278 280 280 280 280 279 267 259 264 267 214 218 268 273 270 264 260 268 277 298
257 270 274 274 278 282 281 281 278 271 258 264 268 269 268 269 273 276 276 283 282 281 282 277 277 277 273 285 295 265 225 270 277 283 295 291 285 181
263 273 280 281 282 280 279 278 278 278 276 272 269 270 270 271 276 277 274 273 276 284 285 288 303 276 274 264 257 270 187 156 208 289 290 282 286 271
272 278 284 289 289 286 281 278 276 277 276 270 277 278 277 275 269 269 274 272 267 276 289 295 275 265 266 256 261 271 275 135 149 157 258 295 294 295
273 280 285 289 293 294 296 291 288 291 291 291 298 296 292 287 283 277 269 268 272 271 269 280 279 266 270 257 255 267 270 233 218 185 170 166 175 183